[新聞] 大飛被爆「殺青宴借酒裝瘋」抓女星胸部!

看板 Gossiping
作者
時間
留言 48則留言,46人參與討論
推噓 3 ( 17推 14噓 17→ )
1.媒體來源: ETToday 2.記者署名: 記者李湘文/綜合報導 3.完整新聞標題: 大飛被爆「殺青宴借酒裝瘋」抓女星胸部! 經紀人解釋誤會:真的很抱歉 4.完整新聞內文: 一名網友日前在「靠北影視」匿名爆料,指控藝人大飛參加殺青酒時「借酒裝瘋,抓女演 員胸部」,引發爭議。大飛經紀人18日代他回應,當天確實喝得比較多、動作可能大了一 些,但抓胸部的傳言是個誤會,「絕對沒有任何不禮貌的意思。」 網友在爆料文中控訴:「大X,X飛,你為什麼要在殺青酒的時候借酒裝瘋,抓女演員的胸 部!?不是都要結婚了嗎?」該名網友表示,聽到這件事之後真的很火大,「要讓大家知 道你的噁心!」因而在網路上匿名爆料。 據《三立新聞網》報導,經紀人回應性騷擾爭議,澄清「這件事情是個誤會」,當天大飛 因為看到好久不見的導演、演員等熟人,喝多了之後動作比較大一些,可能因此讓別人感 到不舒服,他為此「真的覺得很抱歉」,但絕對沒有不禮貌的意思。 據悉,大飛在殺青酒上因為喝得比較多,對當天的事也有點失去印象,看到網路爆料內容 後,馬上就向當天在場的友人確認自己是否真有不禮貌舉動,但只有一名工作人員表示「 有聽說」,沒有人清楚發生了什麼事。但大飛還是因此自省,以後會更注意行為舉止。 5.完整新聞連結 (或短網址): https://star.ettoday.net/news/1834419?redirect=1 6.備註: ※ 一個人一天只能張貼一則新聞,被刪或自刪也算額度內,超貼者水桶,請注意 ※ 備註請勿張貼三日內新聞(包含連結、標題等) --
※ 發信站: 批踢踢實業坊(ptt.cc), 來自: 210.61.41.1 (臺灣) ※ 文章網址: https://www.ptt.cc/bbs/Gossiping/M.1603069222.A.DD2.html
1Floby1234: 呵呵!台灣演藝圈呀! 10/19 09:01
2FIRPT001: 以為秋生 10/19 09:01
3Fvowpool: 喝了酒就以為在酒店 10/19 09:01
4Facln0816: 我還以為是大飛哥勒 幹 10/19 09:01
5Ftai728: 我大飛平常瘋瘋癲癲 10/19 09:02
6FVVizZ: 所以女演員是誰 能能嗎 10/19 09:02
7FVVizZ: 大飛不是有演想見你 但想見你的女演員沒有胸部 結案 10/19 09:03
8FLailungsheng: 是烏鴉幹的栽贓給大飛哥吧 10/19 09:04
9Fameko34: 還以為是喜歡挖鼻屎的大飛哥 10/19 09:04
10Fwolver: 大飛?? 又是誰? 黃秋生嗎? 10/19 09:05
11Fk1400: 不只出黃色書刊,連三級片都拍過 10/19 09:06
12Fprettyna: 大飛哥?黃秋生? 10/19 09:06
13Fyoyoflag: 這藝名是想蹭熱度? 10/19 09:07
14Fcloudyst: 他是誰?我只認識洪興大飛 10/19 09:07
15Fscores: 大飛管北角拍A片的不意外 10/19 09:08
16Fcoolchife: 誰叫你一點tempo都不給我大飛 10/19 09:08
17Fvviiccttoorr: 烏鴉表示 10/19 09:11
18Fkey123987: 這又誰? 10/19 09:13
19Fkumori: 看標體以為黃秋生 10/19 09:13
20Fkumori: 題 10/19 09:13
21Fhidewin200: 你誰 只有洪興大飛我服 10/19 09:13
22FPCC2003: 靠腰這誰啊?還以為是黃暢秋 10/19 09:14
23Fjaceda: 幹你娘取這三洨機八,想蹭大飛哥的名號嗎 10/19 09:14
24Fleechiungyi: :) 10/19 09:16
25Fshijh: 還以為是大飛哥 這誰啊 10/19 09:20
26FHodorDragon: 不是大飛哥喔 哪來的路人啦 10/19 09:22
27Fdeuce: 還好有個藝人頭銜 若是一般歹丸__男就法院見囉 10/19 09:23
28Fseal998: 哪來的幹? 10/19 09:23
29Fa900632000: 取三小大飛 10/19 09:26
30Falozo: 真的只看標題還以為是大飛哥,結果此飛非彼飛 10/19 09:26
31FLoMing1021: 大飛為人那麼隨和 10/19 09:27
32Fjeramywu: 大飛 空幹王 不是都同一掛? 不意外 10/19 09:27
33FMaJaJa0413: 誰啦,只知道黃秋生啦 10/19 09:29
34Fralfeistein: 我大飛這麼隨和 又不會打你 10/19 09:29
35Fdffdff: waiting 4 uuuuu 10/19 09:31
36FOGC218: 所以有沒有抓? 10/19 09:33
37Fyomiah: 誰? 10/19 09:37
38Fscum5566: 所以到底有沒有抓到奶子?? 還有這卡小是誰 10/19 09:42
39Fpipi6311: 誰= =? 10/19 09:48
40Flime1207: 證據?? 口說無憑 10/19 09:54
41Fgrandwar: 黃秋生那等級的去招待所就好 10/19 09:55
42Fyudofu: 大飛這個綽號應該跟球衣一樣幫黃秋生辦退休儀式吧,哈 10/19 10:03
43Fvisviva: 不能為了老人貼一下照片嗎... 10/19 10:07
44Fsean3378: 幹 超爽的 10/19 11:26
45Fhornet177165: 誰啊 大飛我只服秋生 10/19 12:13
46Fmilkkiss: 朋友被摸,只好抓別的女星 10/19 12:26
47Fnrxadsl: 所以誰被抓 10/19 12:27
48Fgetx105: 誰啊 10/19 12:43

八卦 看板熱門文章

41
59